Date String (YYYY-MM-DD hh:mm:ss) UTC,Instrument flags,absolute air pressure of the measurement (hPa),sample flow rate (lpm),inlet stack bypass flow (lpm),air temperature of the measurement (°C),ambient temperature measured by the external sensor (°C),aerosol sample conditioner tube jacket temperature (°C),OPC LED temperature (°C),internal box temperature (°C),relative humidity of the measurement (%),span deviation,mass concentration of particles derived from Lorenz-Mie calculation of OPC scattering (μg/m³),mass concentration of particles derived from Lorenz-Mie calculation of OPC scattering (μg/m³),mass concentration of particles derived from Lorenz-Mie calculation of OPC scattering (μg/m³)
DateTimeUTC,F1_M11,P_M11,Q1_M11,Q2_M11,T1_M11,T2_M11,T3_M11,T4_M11,T5_M11,U1_M11,ZSPAN_M11,X2_M11,X0_M11,X1_M11
2023-06-22 03:00:00,SystemResetWarning,0832.5,4.99,000.00,030.7,028.2,000.0,039.2,031.7,34.3,0002.0,0009.28,0020.20,0007.10
2023-06-22 03:01:00,SystemResetWarning,0832.7,5.00,000.00,030.7,028.3,000.0,039.2,031.7,34.3,0001.4,0009.29,0020.85,0007.08
2023-06-22 03:02:00,SystemResetWarning,0832.7,4.99,000.00,030.7,028.4,000.0,039.2,031.7,34.2,0001.2,0009.33,0021.04,0007.07
2023-06-22 03:03:00,SystemResetWarning,0832.7,5.00,000.00,030.7,027.3,000.0,039.1,031.8,34.1,0000.9,0009.28,0020.62,0007.04
2023-06-22 03:04:00,SystemResetWarning,0832.7,5.00,000.00,030.7,025.5,000.0,039.0,031.7,33.9,0000.9,0009.29,0020.43,0007.01
2023-06-22 03:05:00,SystemResetWarning,0832.7,5.01,000.00,030.7,025.1,000.0,039.0,031.5,34.4,0000.7,0009.23,0020.69,0006.97
2023-06-22 03:06:00,SystemResetWarning,0832.6,4.99,000.00,030.5,025.3,000.0,038.9,031.1,35.0,0001.1,0009.15,0020.95,0006.93
2023-06-22 03:07:00,SystemResetWarning,0832.5,5.04,000.00,030.5,025.8,000.0,038.9,031.2,34.9,0000.8,0009.06,0021.05,0006.88
2023-06-22 03:08:00,SystemResetWarning,0832.5,4.96,000.00,030.6,026.2,000.0,038.9,031.3,34.4,0000.8,0009.06,0020.77,0006.84
2023-06-22 03:09:00,SystemResetWarning,0832.3,5.03,000.00,030.7,026.7,000.0,038.9,031.4,34.0,0001.1,0009.03,0020.16,0006.82
2023-06-22 03:10:00,SystemResetWarning,0832.2,4.98,000.00,030.7,027.0,000.0,038.9,031.4,34.1,0001.5,0009.03,0020.12,0006.79
2023-06-22 03:11:00,SystemResetWarning,0832.2,4.99,000.00,030.7,027.3,000.0,038.9,031.4,33.9,0001.8,0008.95,0019.28,0006.74
2023-06-22 03:12:00,SystemResetWarning,0832.2,5.02,000.00,030.7,027.6,000.0,039.0,031.5,33.6,0002.1,0008.83,0018.74,0006.68
2023-06-22 03:13:00,SystemResetWarning,0832.2,5.00,000.00,030.8,027.8,000.0,039.0,031.5,33.8,0002.2,0008.76,0018.75,0006.64
2023-06-22 03:14:00,SystemResetWarning,0832.3,4.99,000.00,030.8,028.0,000.0,039.0,031.6,34.2,0002.3,0008.78,0018.93,0006.63
2023-06-22 03:15:00,SystemResetWarning,0832.4,5.00,000.00,030.8,028.1,000.0,039.0,031.6,34.4,0002.4,0008.75,0018.63,0006.58
2023-06-22 03:16:00,SystemResetWarning,0832.5,5.02,000.00,030.8,028.3,000.0,039.1,031.7,34.5,0002.7,0008.79,0018.05,0006.56
2023-06-22 03:17:00,SystemResetWarning,0832.6,5.00,000.00,030.8,028.4,000.0,039.1,031.7,34.5,0002.5,0008.86,0017.93,0006.59
2023-06-22 03:18:00,SystemResetWarning,0832.5,4.99,000.00,030.8,028.5,000.0,039.1,031.7,34.6,0002.3,0008.93,0017.84,0006.60
2023-06-22 03:19:00,SystemResetWarning,0832.6,5.00,000.00,030.8,027.3,000.0,039.1,031.8,34.5,0002.3,0009.02,0018.24,0006.61
2023-06-22 03:20:00,SystemResetWarning,0832.6,5.00,000.00,030.8,025.5,000.0,039.0,031.7,34.5,0002.3,0009.04,0018.76,0006.61
2023-06-22 03:21:00,SystemResetWarning,0832.7,5.01,000.00,030.8,025.0,000.0,039.0,031.5,34.6,0002.3,0009.10,0019.06,0006.62
2023-06-22 03:22:00,SystemResetWarning,0832.6,5.01,000.00,030.6,025.3,000.0,038.9,031.2,34.8,0002.2,0009.19,0018.90,0006.65
2023-06-22 03:23:00,SystemResetWarning,0832.6,5.01,000.00,030.5,025.7,000.0,038.9,031.2,34.7,0001.9,0009.30,0018.75,0006.70
2023-06-22 03:24:00,SystemResetWarning,0832.6,5.00,000.00,030.4,026.2,000.0,038.9,031.2,34.6,0001.7,0009.39,0019.02,0006.73
2023-06-22 03:25:00,SystemResetWarning,0832.7,5.00,000.00,030.4,026.6,000.0,038.9,031.2,34.7,0001.4,0009.42,0019.18,0006.72
2023-06-22 03:26:00,SystemResetWarning,0832.7,4.99,000.00,030.4,027.0,000.0,038.9,031.3,34.6,0001.2,0009.43,0019.63,0006.74
2023-06-22 03:27:00,SystemResetWarning,0832.7,4.99,000.00,030.4,027.3,000.0,038.9,031.3,34.7,0000.8,0009.37,0019.50,0006.72
2023-06-22 03:28:00,SystemResetWarning,0833.0,5.00,000.00,030.4,027.6,000.0,038.9,031.4,34.9,0000.8,0009.26,0019.28,0006.65
2023-06-22 03:29:00,SystemResetWarning,0833.3,5.00,000.00,030.4,027.8,000.0,038.9,031.4,34.8,0001.2,0009.15,0019.18,0006.61
2023-06-22 03:30:00,SystemResetWarning,0833.2,5.00,000.00,030.4,027.9,000.0,038.9,031.4,34.7,0001.3,0009.00,0018.89,0006.56
2023-06-22 03:31:00,SystemResetWarning,0833.2,5.01,000.00,030.4,028.1,000.0,038.9,031.4,34.6,0001.0,0008.98,0019.05,0006.51
2023-06-22 03:32:00,SystemResetWarning,0833.1,5.01,000.00,030.4,028.2,000.0,038.9,031.5,34.7,0000.7,0008.89,0018.73,0006.45
2023-06-22 03:33:00,SystemResetWarning,0832.8,5.01,000.00,030.4,028.3,000.0,038.9,031.5,34.7,0000.8,0008.81,0019.02,0006.39
2023-06-22 03:34:00,SystemResetWarning,0832.7,5.00,000.00,030.4,028.4,000.0,038.9,031.6,34.5,0001.0,0008.75,0019.88,0006.32
2023-06-22 03:35:00,SystemResetWarning,0832.6,5.00,000.00,030.4,028.5,000.0,038.9,031.6,34.6,0001.2,0008.61,0019.51,0006.26
2023-06-22 03:36:00,SystemResetWarning,0832.5,4.98,000.00,030.4,027.5,000.0,038.8,031.6,34.6,0001.3,0008.54,0019.10,0006.23
2023-06-22 03:37:00,SystemResetWarning,0832.5,5.01,000.00,030.4,025.6,000.0,038.7,031.5,34.5,0001.5,0008.46,0018.39,0006.19
2023-06-22 03:38:00,SystemResetWarning,0832.5,5.00,000.00,030.3,025.0,000.0,038.7,031.4,34.6,0001.1,0008.50,0019.17,0006.20
2023-06-22 03:39:00,SystemResetWarning,0832.5,4.99,000.00,030.2,025.2,000.0,038.7,031.1,34.9,0001.0,0008.56,0019.12,0006.21
2023-06-22 03:40:00,SystemResetWarning,0832.6,5.02,000.00,030.2,025.6,000.0,038.7,031.1,35.1,0001.1,0008.63,0019.47,0006.20
2023-06-22 03:41:00,SystemResetWarning,0832.5,5.00,000.00,030.4,026.1,000.0,038.7,031.2,34.7,0001.0,0008.65,0019.55,0006.16
2023-06-22 03:42:00,SystemResetWarning,0832.5,4.99,000.00,030.5,026.5,000.0,038.7,031.3,34.3,0001.1,0008.64,0018.91,0006.14
2023-06-22 03:43:00,SystemResetWarning,0832.5,5.01,000.00,030.6,026.9,000.0,038.7,031.3,34.1,0000.8,0008.59,0019.05,0006.12
2023-06-22 03:44:00,SystemResetWarning,0832.6,4.99,000.00,030.7,027.2,000.0,038.7,031.3,34.0,0001.2,0008.66,0019.78,0006.11
2023-06-22 03:45:00,SystemResetWarning,0832.6,4.99,000.00,030.7,027.4,000.0,038.7,031.3,33.8,0001.1,0008.63,0019.39,0006.07
2023-06-22 03:46:00,SystemResetWarning,0832.7,5.00,000.00,030.7,027.6,000.0,038.8,031.3,33.8,0001.3,0008.59,0019.36,0006.05
2023-06-22 03:47:00,SystemResetWarning,0832.7,5.02,000.00,030.7,027.8,000.0,038.8,031.4,33.8,0001.4,0008.54,0019.33,0006.00
2023-06-22 03:48:00,SystemResetWarning,0832.7,5.01,000.00,030.8,028.0,000.0,038.9,031.5,33.8,0001.4,0008.50,0019.56,0005.97
2023-06-22 03:49:00,SystemResetWarning,0832.7,4.99,000.00,030.8,028.1,000.0,038.9,031.5,33.8,0002.0,0008.44,0018.57,0005.92
2023-06-22 03:50:00,SystemResetWarning,0832.7,4.99,000.00,030.8,028.2,000.0,039.0,031.5,33.7,0002.7,0008.37,0018.74,0005.87
2023-06-22 03:51:00,SystemResetWarning,0832.8,5.01,000.00,030.8,028.3,000.0,039.0,031.6,33.6,0002.8,0008.21,0018.93,0005.82
2023-06-22 03:52:00,SystemResetWarning,0833.0,5.01,000.00,030.8,028.4,000.0,039.0,031.6,33.6,0003.0,0008.08,0018.57,0005.80
2023-06-22 03:53:00,SystemResetWarning,0833.1,5.01,000.00,030.8,028.3,000.0,039.0,031.7,33.5,0003.2,0007.97,0018.22,0005.79
2023-06-22 03:54:00,SystemResetWarning,0833.1,4.98,000.00,030.8,026.5,000.0,039.0,031.7,33.4,0003.5,0007.90,0018.03,0005.78
2023-06-22 03:55:00,SystemResetWarning,0833.0,5.01,000.00,030.8,025.1,000.0,038.9,031.6,33.4,0003.3,0007.80,0017.01,0005.78
2023-06-22 03:56:00,SystemResetWarning,0833.0,5.00,000.00,030.7,025.0,000.0,038.9,031.3,33.6,0002.9,0007.80,0016.77,0005.80
2023-06-22 03:57:00,SystemResetWarning,0832.9,5.01,000.00,030.6,025.3,000.0,038.9,031.1,33.9,0002.6,0007.77,0016.60,0005.81
2023-06-22 03:58:00,SystemResetWarning,0832.8,4.99,000.00,030.5,025.8,000.0,038.9,031.1,34.1,0002.7,0007.79,0017.24,0005.82
2023-06-22 03:59:00,SystemResetWarning,0832.8,5.00,000.00,030.4,026.3,000.0,038.9,031.1,34.1,0002.5,0007.78,0017.11,0005.84
